www.pogodaiklimat.ru

Погода и климат >> Архив погоды >> Китай >> Lu Shan


ПОГОДА в Lu Shan

  • Прогноз погоды в Lu Shan
  • Монитор погоды в Lu Shan
  • Климат города

АРХИВ ПОГОДЫ в Lu Shan

Время (UTC), дата Ветер
(напр.,м/с)
 
Видим.   Явления Облачность Т
(С)
Тd
(С)
f
(%)
Тe
(С)
Тes
(С)
Комфортность P
(гПа)
Po
(гПа)
Тmin
(С)
Tmax
(С)
R
(мм)
R24
(мм)
S
(см)
18 23.04 Ю 5 14 км ?/? +13.6 +1.3 43 +12 +12 1013.5 1014.0 +18.4
21 23.04 Ю 4 15 км ?/? +14.1 -10.6 17 +13 +13 1013.5 1014.0
00 24.04 ЮЗ 4 13 км 8/8
[]
+16.6 -4.3 24 +16 +17 1014.9 1015.0
03 24.04 СЗ 2 12 км 5/5 300 м
[]
+19.4 +6.2 42 +21 +30 комфорт 1015.4 1015.0
06 24.04 С 3 11 км 9/9 300 м
[]
+21.6 +12.2 55 +24 +25 комфорт 1013.5 1014.0 +12.4
09 24.04 Ю 2 12 км 9/9 300 м
[]
+18.4 +4.9 41 +19 +19 1013.2 1013.0
12 24.04 Ю 5 9000 м 9/9 300 м
[]
+15.6 +11.2 75 +14 +14 1013.8 1014.0
18 24.04 Ю 4 11 км ?/? +15.2 +10.6 74 +14 +14 1012.2 1012.0 +21.8
21 24.04 Ю 9 13 км ?/? +15.6 +8.8 64 +14 +14 1011.7 1012.0
00 25.04 Ю 4 6000 м слабый дождь ?/? +13.4 +12.6 95 +12 +12 1014.1 1012.8 1
03 25.04 Ю 6 3500 м дождь ?/? +14.2 +14.0 99 +12 +12 1013.4 1013.0
06 25.04 Ю 9 400 м слабый дождь {туман} ?/? +13.2 +13.2 100 +10 +10 1010.9 1011.0 +13.0 16
09 25.04 Ю 9 4600 м слабый дождь {туман} ?/? +12.1 +12.1 100 +8 +8 1009.8 1010.0
12 25.04 В 7 300 м слабый дождь {туман} ?/? +11.9 +11.9 100 +9 +9 1012.9 1013.0 9
18 25.04 В 10
{23}
<100 м туман ?/? +9.9 +9.9 100 +5 +5 1014.7 1015.0 +16.0 5
21 25.04 С 11
{23}
100 м туман ?/? +9.7 +9.7 100 +5 +5 1014.9 1015.0
00 26.04 С 11
{21}
100 м туман ?/? +9.4 +9.4 100 +4 +4 1017.3 1017.2 0.1
03 26.04 С 10
{21}
400 м дымка {туман} ?/? +9.4 +9.4 100 +4 +4 1019.0 1019.0
06 26.04 С 11
{20}
200 м слабый дождь {туман} ?/? +9.8 +9.8 100 +5 +5 1018.3 1018.0 +8.7 0.0
09 26.04 С 7
{20}
100 м туман {дождь} ?/? +9.9 +9.9 100 +6 +6 1018.7 1019.0
12 26.04 СВ 7
{17}
100 м слабый дождь {туман} ?/? +9.4 +9.4 100 +5 +5 1020.5 1021.0 0.8
18 26.04 С 8
{19}
100 м туман ?/? +8.9 +8.9 100 +4 +4 1020.0 1020.0 +10.0 5
21 26.04 СВ 11 100 м туман ?/? +7.6 +7.6 100 +2 +2 1020.0 1020.0
00 27.04 СВ 10 7000 м 9/9 100 м
[]
+7.0 +6.7 98 +1 +1 1022.0 888.4 5
03 27.04 СВ 6 14 км 9/9 200 м
[]
+10.6 +1.7 54 +8 +8 1022.6 844.2
06 27.04 С 5 15 км 9/9 300 м
[]
+13.0 +2.0 47 +11 +12 1020.3 888.1 +6.5
09 27.04 С 4 15 км 9/9 300 м
[]
+12.1 +3.3 55 +10 +11 1019.8 1020.0
12 27.04 С 3 13 км 8/8 300 м
[]
+8.9 +4.3 73 +7 +7 1021.7 1022.0
18 27.04 С 2 10 км ?/? +8.0 +4.0 76 +6 +6 1019.7 1020.0 +13.8
21 27.04 СЗ 3 13 км ?/? +7.3 +2.2 70 +5 +5 1019.4 1019.0
00 28.04 З 2 12 км ясно +11.5 +2.8 55 +11 +16 1020.5 1021.0
03 28.04 С 2 13 км 3/3 300 м
[]
+15.4 +2.2 41 +15 +29 опасность
простуды
1019.7 1020.0
06 28.04 С 3 14 км ?/? +17.7 +2.5 36 +18 +18 1017.2 1017.0 +7.2
09 28.04 С 3 13 км ясно +15.6 +1.0 37 +15 +18 1016.3 1016.0
12 28.04 З 1 14 км ясно +12.2 -1.3 39 +13 +13 1016.8 1017.0
18 28.04 СЗ 2 15 км ?/? +11.3 -1.5 41 +11 +11 1015.0 1015.0 +18.3
21 28.04 Ю 1 19 км ?/? +11.8 -0.4 43 +12 +12 1015.3 1015.0
00 29.04 З 1 16 км ясно +15.1 -4.8 25 +16 +22 1016.4 885.8
03 29.04 З 2 15 км ясно +17.7 +1.2 33 +18 +37 опасность
простуды
1016.2 842.1
06 29.04 З 2 14 км ясно +18.7 +7.2 47 +20 +37 опасность
простуды
1014.5 884.7 +10.5
09 29.04 Ю 3 14 км ясно +17.5 +5.8 46 +18 +21 1013.5 1014.0
12 29.04 Ю 2 17 км 1/1
[]
+14.2 +4.5 52 +14 +14 1013.8 1014.0
18 29.04 Ю 4 17 км ?/? +14.3 +3.4 48 +13 +13 1011.9 1012.0 +19.5
21 29.04 ЮЗ 4 17 км ?/? +13.9 +3.4 49 +13 +13 1012.1 1012.0
00 30.04 Ю 3 15 км ясно +17.5 +5.4 45 +18 +22 1013.0 883.8
03 30.04 З 2 15 км 3/3
[]
+19.9 +5.5 39 +21 +35 комфорт 1012.9 1013.0
06 30.04 З 2 15 км 6/6 300 м
[]
+21.6 +3.8 31 +22 +29 комфорт 1011.1 1011.0 +13.1
09 30.04 С 1 14 км 6/6
[]
+19.9 +8.0 46 +22 +24 комфорт 1010.9 1011.0

 

Местоположение метеостанции Lu Shan (Китай): широта 29.58 долгота 115.98 высота над уровнем моря 1165 м.

В архиве по умолчанию представлена погода в Lu Shan за последнюю неделю. Архивные данные за месяц целиком и за предыдущие месяцы, начиная с января 2011 года, Вы можете получить, выбрав интересующий диапазон дат из раскрывающегося списка и нажав кнопку "Ввод!".

Внимание! Время в таблицах - всемирное. Для получения местного времени необходимо прибавить поправку, которая в Lu Shan равна 8 ч.

Смотрите также архив погоды в соседних городах и на ближайших метеорологических станциях:

Погода в Nanchang (Китай) (109 км)
Погода в Jingdezhen (Китай) (122 км)
Погода в Anqing (Китай) (148 км)
Погода в Xiushui (Китай) (149 км)
Погода в Macheng (Китай) (203 км)
Погода в Huoshan (Китай) (205 км)
Погода в Wuhan (Китай) (212 км)
Погода в Huang Shan (Китай) (218 км)
Погода в Nancheng (Китай) (232 км)
Погода в Yichun (Китай) (252 км)

Пояснения к столбцам:

Ветер - указаны скорость ветра в м/с - средняя за 10 мин, порывы в срок и между сроками (в фигурных скобках) и направление, откуда дует ветер: С - северный, СВ - северо-восточный, В - восточный, ЮВ - юго-восточный, Ю - южный, ЮЗ - юго-западный, З - западный, СЗ - северо-западный.
Видимость - горизонтальная дальность видимости в метрах или километрах. При видимости от 1 до 10 км при отсутствии осадков обычно наблюдается дымка, при ухудшении видимости до 1 км и менее - туман. В сухую погоду видимость может ухудшаться дымом, пылью или мглою.
Явления - указаны атмосферные явления, наблюдавшиеся в срок или в последний час перед сроком; фигурными скобками обозначены явления, наблюдавшиеся между сроками (за 1-3 часа до срока); квадратными скобками обозначены град или гололедные отложения с указанием их диаметра в мм.
Облачность - указаны через наклонную черту общая и нижняя облачность в баллах и высота нижней границы облаков в метрах; квадратными скобками обозначены формы облаков: Ci - перистые, Cs - перисто-слоистые, Cc - перисто-кучевые, Ac - высококучевые, As - высокослоистые, Sc - слоисто-кучевые, Ns - слоисто-дождевые, Cu - кучевые, Cb - кучево-дождевые. Подробнее классификацию облаков см. в Атласе облаков (PDF).
T - Температура воздуха - температура, измеренная на высоте 2 м над землей.
Td - Температура точки росы - температура, при понижении до которой содержащийся в воздухе водяной пар достигнет насыщения.
f - Относительная влажность воздуха - влажноcть воздуха, измеренная на высоте 2 м над землей.
Te - Эффективная температура - температура, которую ощущает одетый по сезону человек в тени. Характеристика душности погоды. При расчете учитывается влияние влажности воздуха и скорости ветра на теплоощущения человека.
Tes - Эффективная температура на солнце - температура, которую ощущает человек, с поправкой на солнечный нагрев. Характеристика знойности погоды. Зависит от высоты солнца над горизонтом, облачности и скорости ветра. Ночью, в пасмурную погоду, а также при ветре 12 м/с и более поправка равна нулю.
P - Атмосферное давление - приведенное к уровню моря атмосферное давление.
Po - Атмосферное давление - измеренное на уровне метеостанции атмосферное давление.
Tmin - Минимальная температура - минимум температуры воздуха на высоте 2 м над землей.
Tmax - Максимальная температура - максимум температуры воздуха на высоте 2 м над землей.
R - Количество осадков - Количество выпавших осадков за период времени, мм. При наведении курсора мыши на число - период времени, за который выпало указанное количество осадков.
R24 - Количество осадков - Количество выпавших осадков за 24 часа, мм.
S - Снежный покров - Высота снежного покрова, см. При наведении курсора мыши на число - состояние снежного покрова и степень покрытия местности в баллах.